Justice — WDG2184 — position and weather

sailwx.info

Track history (hours):
 
Tides and Currents Weather Stations Pressure Air Temp Water Temp Dewpoint Dewpoint Depression Visibility Wind Speed Wind Dir Waves Ship Positions

Justice

Owner: Boston Towing & Transportation, Boston, MA. More information available from US FCC via Universal Licensing System and Coast Guard Vessel Documentation Center.

Last reported at 2014-Oct-25 23:08 UTC. Time now 2014-Oct-26 08:43 UTC.
Position N 41°45' W 070°35'.

Length 30 m; draft 5.8 m.

Type: Tug. MMSI: 367513010.

Date/timePositionNaut miles runAvg speedWind from/ knotsBaromVisibWave heightAir tempDewpointWater temp
2014-Oct-25 23:08N 41°45' W 070°35'15 9.3
2014-Oct-25 21:32N 41°33' W 070°46'9 9.3
2014-Oct-25 20:33N 41°28' W 070°57'2 2.1
2014-Oct-25 19:33N 41°27' W 070°59'9 8.9
2014-Oct-25 18:34N 41°32' W 070°49'20 9.6
2014-Oct-25 16:27N 41°46' W 070°30'4 4.9
2014-Oct-25 15:33N 41°45' W 070°36'12 8.2
2014-Oct-25 14:09N 41°35' W 070°43'5 8.9
2014-Oct-25 13:33N 41°31' W 070°49'9 9.2
2014-Oct-25 12:33N 41°27' W 070°60'5 5.2
2014-Oct-25 11:33N 41°30' W 070°54'10 9.7
2014-Oct-25 10:33N 41°36' W 070°44'10 9.5
2014-Oct-25 09:31N 41°44' W 070°37'  
2014-Oct-22 15:29N 41°26' W 071°02'1 0.6
2014-Oct-22 14:25N 41°26' W 071°01'4 4.1
2014-Oct-22 13:33N 41°28' W 070°58'12 0.3
2014-Oct-20 15:05N 41°34' W 070°44'4 7.1
2014-Oct-20 14:33N 41°32' W 070°48'7 6.8
2014-Oct-20 13:33N 41°29' W 070°56'4 4.0
2014-Oct-20 12:31N 41°26' W 071°01'26 8.6
2014-Oct-20 09:32N 41°45' W 070°36'  
2014-Oct-17 13:15N 41°34' W 070°44'7 9.9
2014-Oct-17 12:33N 41°30' W 070°51'7 7.1
2014-Oct-17 11:31N 41°27' W 071°00'9 9.3
2014-Oct-17 10:32N 41°31' W 070°49'16 2.9
2014-Oct-17 05:08N 41°44' W 070°37'4 6.3
2014-Oct-17 04:32N 41°46' W 070°33'2 1.8
2014-Oct-17 03:25N 41°45' W 070°35'5 5.2
2014-Oct-17 02:28N 41°42' W 070°40'5 3.7
2014-Oct-17 01:06N 41°37' W 070°42'2 3.0
2014-Oct-17 00:33N 41°35' W 070°43'3 2.6
2014-Oct-16 23:34N 41°33' W 070°45'3 2.6
2014-Oct-16 22:33N 41°32' W 070°48'2 2.3
2014-Oct-16 21:33N 41°30' W 070°50'2 2.3
2014-Oct-16 20:32N 41°29' W 070°53'5 5.1
2014-Oct-16 19:33N 41°27' W 070°59'0 0.2
2014-Oct-16 18:30N 41°28' W 070°59'15 1.9
2014-Oct-16 10:24N 41°36' W 070°43'6 7.6
2014-Oct-16 09:33N 41°31' W 070°48'8 7.8
2014-Oct-16 08:33N 41°28' W 070°58'3 2.6
2014-Oct-16 07:33N 41°27' W 071°01'9 9.1
2014-Oct-16 06:33N 41°31' W 070°50'9 8.7
2014-Oct-16 05:31N 41°38' W 070°42'7 7.7
2014-Oct-16 04:33N 41°44' W 070°37'  
Track history (hours):
 
Tides and Currents Weather Stations Pressure Air Temp Water Temp Dewpoint Dewpoint Depression Visibility Wind Speed Wind Dir Waves Ship Positions

Justice

Owner: Boston Towing & Transportation, Boston, MA. More information available from US FCC via Universal Licensing System and Coast Guard Vessel Documentation Center.

Last reported at 2014-Oct-25 23:08 UTC. Time now 2014-Oct-26 08:43 UTC.
Position N 41°45' W 070°35'.

Length 30 m; draft 5.8 m.

Type: Tug. MMSI: 367513010.

Date/timePositionNaut miles runAvg speedWind from/ knotsBaromVisibWave heightAir tempDewpointWater temp
2014-Oct-25 23:08N 41°45' W 070°35'15 9.3
2014-Oct-25 21:32N 41°33' W 070°46'9 9.3
2014-Oct-25 20:33N 41°28' W 070°57'2 2.1
2014-Oct-25 19:33N 41°27' W 070°59'9 8.9
2014-Oct-25 18:34N 41°32' W 070°49'20 9.6
2014-Oct-25 16:27N 41°46' W 070°30'4 4.9
2014-Oct-25 15:33N 41°45' W 070°36'12 8.2
2014-Oct-25 14:09N 41°35' W 070°43'5 8.9
2014-Oct-25 13:33N 41°31' W 070°49'9 9.2
2014-Oct-25 12:33N 41°27' W 070°60'5 5.2
2014-Oct-25 11:33N 41°30' W 070°54'10 9.7
2014-Oct-25 10:33N 41°36' W 070°44'10 9.5
2014-Oct-25 09:31N 41°44' W 070°37'  
2014-Oct-22 15:29N 41°26' W 071°02'1 0.6
2014-Oct-22 14:25N 41°26' W 071°01'4 4.1
2014-Oct-22 13:33N 41°28' W 070°58'12 0.3
2014-Oct-20 15:05N 41°34' W 070°44'4 7.1
2014-Oct-20 14:33N 41°32' W 070°48'7 6.8
2014-Oct-20 13:33N 41°29' W 070°56'4 4.0
2014-Oct-20 12:31N 41°26' W 071°01'26 8.6
2014-Oct-20 09:32N 41°45' W 070°36'  
2014-Oct-17 13:15N 41°34' W 070°44'7 9.9
2014-Oct-17 12:33N 41°30' W 070°51'7 7.1
2014-Oct-17 11:31N 41°27' W 071°00'9 9.3
2014-Oct-17 10:32N 41°31' W 070°49'16 2.9
2014-Oct-17 05:08N 41°44' W 070°37'4 6.3
2014-Oct-17 04:32N 41°46' W 070°33'2 1.8
2014-Oct-17 03:25N 41°45' W 070°35'5 5.2
2014-Oct-17 02:28N 41°42' W 070°40'5 3.7
2014-Oct-17 01:06N 41°37' W 070°42'2 3.0
2014-Oct-17 00:33N 41°35' W 070°43'3 2.6
2014-Oct-16 23:34N 41°33' W 070°45'3 2.6
2014-Oct-16 22:33N 41°32' W 070°48'2 2.3
2014-Oct-16 21:33N 41°30' W 070°50'2 2.3
2014-Oct-16 20:32N 41°29' W 070°53'5 5.1
2014-Oct-16 19:33N 41°27' W 070°59'0 0.2
2014-Oct-16 18:30N 41°28' W 070°59'15 1.9
2014-Oct-16 10:24N 41°36' W 070°43'6 7.6
2014-Oct-16 09:33N 41°31' W 070°48'8 7.8
2014-Oct-16 08:33N 41°28' W 070°58'3 2.6
2014-Oct-16 07:33N 41°27' W 071°01'9 9.1
2014-Oct-16 06:33N 41°31' W 070°50'9 8.7
2014-Oct-16 05:31N 41°38' W 070°42'7 7.7
2014-Oct-16 04:33N 41°44' W 070°37'  

Dump ship's entire track history